[ hide orbit diagram ]
For accurate long-term ephemerides, please instead use our Horizons system.This orbit viewer was implemented using two-body methods, and hence should not be used for determining accurate long-term trajectories (over several years or decades) or planetary encounter circumstances.
Orbital Elements at Epoch 2459200.5 (2020-Dec-17.0) TDB
Reference: JPL 40 (heliocentric ecliptic J2000)
Element | Value | Uncertainty (1-sigma) | Units |
e | .02783560335536532 | 2.3294e-08 | |
a | 2.890528151604172 | 9.2218e-09 | au |
q | 2.810068556488601 | 7.1468e-08 | au |
i | 2.42452189995468 | 5.111e-07 | deg |
node | 29.88701007537973 | 6.2095e-06 | deg |
peri | 140.7485222678114 | 2.7325e-05 | deg |
M | 290.2448459222633 | 2.8598e-05 | deg |
tp | 2459548.306771906029 (2021-Nov-29.80677191) | 0.00014303 | TDB |
period | 1794.99908704428 4.91 | 8.59e-06 2.352e-08 | d yr |
n | .2005572050695529 | 9.5977e-10 | deg/d |
Q | 2.970987746719743 | 9.4785e-09 | au |
|
| | Orbit Determination Parameters
Additional Information
|
[ show covariance matrix ]
Physical Parameter Table
Parameter |
Symbol |
Value |
Units |
Sigma |
Reference |
Notes |
absolute magnitude |
H |
10.93 |
|
n/a |
E2021B10 |
IRAS observations used: 2 |
diameter |
diameter |
20.78 |
km |
1.9 |
IRAS-A-FPA-3-RDR-IMPS-V6.0 |
IRAS observations used: 2 |
rotation period |
rot_per |
15.310 |
h |
n/a |
LCDB (Rev. 2020-October); Warner et al., 2009 |
Published Reference List: [Binzel, R.P. (1987) Icarus 72, 135-208.] [Slivan, S.M.; Binzel, R.P.; Boroumand, S.C.; Pan M.W.; et al. (2008) Icarus 195, 226-276.] [Durech, J.; Hanus, J. (2018) Astron. Astrophys. 620, A91.] |
geometric albedo |
albedo |
0.1819 |
|
0.039 |
IRAS-A-FPA-3-RDR-IMPS-V6.0 |
IRAS observations used: 2 |
B-V |
BV |
0.787 |
|
0.015 |
EAR-A-5-DDR-UBV-MEAN-VALUES-V1.2 |
#obs=3; phase (min.=3.17, mean=9.27, max.=12.32) deg. |
U-B |
UB |
0.390 |
|
0.017 |
EAR-A-5-DDR-UBV-MEAN-VALUES-V1.2 |
#obs=3; phase (min.=3.17, mean=9.27, max.=12.32) deg. |
Tholen spectral type |
spec_T |
S |
|
n/a |
EAR-A-5-DDR-TAXONOMY-V4.0 |
used 2 color indices |
|
1029 La Plata (A924 HB) Discovered 1924-Apr-28 by Hartmann, J. at La Plata |
Reference: DISCOVERY.DB | Last Updated: 2003-08-29 |
|
[ show close-approach data ]
Alternate Designations
A924 HB = 1938 DR2 = 1969 OU = A916 UL = A916 UR |
|
|